Time,TemperatureF,DewpointF,PressureIn,WindDirection,WindDirectionDegrees,WindSpeedMPH,WindSpeedGustMPH,Humidity,HourlyPrecipIn,Conditions,Clouds,dailyrainin,SoftwareType,DateUTC
2013-04-19 00:00:00,48.9,39.2,30.25,WSW,252,5.0,5.0,69,0.00,,---,0.00,VWS V14.01,2013-04-19 07:00:00,
2013-04-19 00:05:00,49.2,39.5,30.25,WNW,302,2.0,6.0,69,0.00,,---,0.00,VWS V14.01,2013-04-19 07:05:00,
2013-04-19 00:10:00,49.1,39.4,30.25,NW,310,4.0,6.0,69,0.00,,---,0.00,VWS V14.01,2013-04-19 07:10:00,
2013-04-19 00:15:00,49.1,39.4,30.25,NW,310,3.0,3.0,69,0.00,,---,0.00,VWS V14.01,2013-04-19 07:15:00,
2013-04-19 00:20:00,49.0,39.3,30.25,WNW,282,3.0,4.0,69,0.00,,---,0.00,VWS V14.01,2013-04-19 07:20:00,
2013-04-19 00:25:00,49.0,39.3,30.25,WNW,282,0.0,4.0,69,0.00,,---,0.00,VWS V14.01,2013-04-19 07:25:00,
2013-04-19 00:30:00,48.9,39.2,30.25,West,275,0.0,0.0,69,0.00,,---,0.00,VWS V14.01,2013-04-19 07:30:00,
2013-04-19 00:35:00,48.8,39.1,30.24,West,275,0.0,0.0,69,0.00,,---,0.00,VWS V14.01,2013-04-19 07:35:00,
2013-04-19 00:40:00,48.7,39.4,30.24,West,275,0.0,0.0,70,0.00,,---,0.00,VWS V14.01,2013-04-19 07:40:00,
2013-04-19 00:45:00,48.6,39.3,30.24,West,275,0.0,0.0,70,0.00,,---,0.00,VWS V14.01,2013-04-19 07:45:00,
2013-04-19 00:50:00,48.4,39.1,30.24,West,275,0.0,0.0,70,0.00,,---,0.00,VWS V14.01,2013-04-19 07:50:00,
2013-04-19 00:55:00,48.4,39.1,30.24,West,275,0.0,0.0,70,0.00,,---,0.00,VWS V14.01,2013-04-19 07:55:00,
2013-04-19 01:00:00,48.3,39.3,30.24,West,275,0.0,0.0,71,0.00,,---,0.00,VWS V14.01,2013-04-19 08:00:00,
2013-04-19 01:05:00,47.8,39.2,30.24,West,275,0.0,0.0,72,0.00,,---,0.00,VWS V14.01,2013-04-19 08:05:00,
2013-04-19 01:10:00,47.7,39.1,30.24,West,275,0.0,0.0,72,0.00,,---,0.00,VWS V14.01,2013-04-19 08:10:00,
2013-04-19 01:15:00,47.7,39.5,30.24,West,275,0.0,0.0,73,0.00,,---,0.00,VWS V14.01,2013-04-19 08:15:00,
2013-04-19 01:20:00,47.6,39.7,30.23,West,275,0.0,0.0,74,0.00,,---,0.00,VWS V14.01,2013-04-19 08:20:00,
2013-04-19 01:25:00,47.4,39.9,30.23,West,275,0.0,0.0,75,0.00,,---,0.00,VWS V14.01,2013-04-19 08:25:00,
2013-04-19 01:30:00,47.2,39.7,30.23,West,275,0.0,0.0,75,0.00,,---,0.00,VWS V14.01,2013-04-19 08:30:00,
2013-04-19 01:35:00,47.1,40.3,30.23,West,275,0.0,0.0,77,0.00,,---,0.00,VWS V14.01,2013-04-19 08:35:00,
2013-04-19 01:40:00,47.1,40.3,30.23,West,275,0.0,0.0,77,0.00,,---,0.00,VWS V14.01,2013-04-19 08:40:00,
2013-04-19 01:45:00,47.0,40.5,30.23,West,275,0.0,0.0,78,0.00,,---,0.00,VWS V14.01,2013-04-19 08:45:00,
2013-04-19 01:50:00,46.4,40.2,30.22,NE,51,0.0,0.0,79,0.00,,---,0.00,VWS V14.01,2013-04-19 08:50:00,
2013-04-19 01:55:00,45.7,40.2,30.23,NE,51,0.0,0.0,81,0.00,,---,0.00,VWS V14.01,2013-04-19 08:55:00,
2013-04-19 02:00:00,45.0,40.2,30.23,NE,51,0.0,0.0,83,0.00,,---,0.00,VWS V14.01,2013-04-19 09:00:00,
2013-04-19 02:05:00,45.0,40.2,30.22,NE,51,0.0,0.0,83,0.00,,---,0.00,VWS V14.01,2013-04-19 09:05:00,
2013-04-19 02:10:00,45.0,40.5,30.22,NE,51,0.0,0.0,84,0.00,,---,0.00,VWS V14.01,2013-04-19 09:10:00,
2013-04-19 02:15:00,45.0,40.5,30.22,NE,51,0.0,0.0,84,0.00,,---,0.00,VWS V14.01,2013-04-19 09:15:00,
2013-04-19 02:20:00,45.0,40.8,30.22,NE,51,0.0,0.0,85,0.00,,---,0.00,VWS V14.01,2013-04-19 09:20:00,
2013-04-19 02:25:00,44.9,41.0,30.22,NE,51,0.0,0.0,86,0.00,,---,0.00,VWS V14.01,2013-04-19 09:25:00,
2013-04-19 02:30:00,44.9,41.3,30.22,NE,51,0.0,0.0,87,0.00,,---,0.00,VWS V14.01,2013-04-19 09:30:00,
2013-04-19 02:35:00,44.8,41.5,30.21,NE,51,0.0,0.0,88,0.00,,---,0.00,VWS V14.01,2013-04-19 09:35:00,
2013-04-19 02:40:00,44.6,41.3,30.21,NE,51,0.0,0.0,88,0.00,,---,0.00,VWS V14.01,2013-04-19 09:40:00,
2013-04-19 02:45:00,44.2,40.9,30.21,NE,51,0.0,0.0,88,0.00,,---,0.00,VWS V14.01,2013-04-19 09:45:00,
2013-04-19 02:50:00,44.1,40.8,30.21,NE,51,0.0,0.0,88,0.00,,---,0.00,VWS V14.01,2013-04-19 09:50:00,
2013-04-19 02:55:00,44.0,41.0,30.21,NE,48,0.0,0.0,89,0.00,,---,0.00,VWS V14.01,2013-04-19 09:55:00,
2013-04-19 03:00:00,43.8,41.1,30.20,NE,48,0.0,0.0,90,0.00,,---,0.00,VWS V14.01,2013-04-19 10:00:00,
2013-04-19 03:05:00,43.7,41.0,30.20,NE,48,0.0,0.0,90,0.00,,---,0.00,VWS V14.01,2013-04-19 10:05:00,
2013-04-19 03:10:00,43.7,41.0,30.20,NE,48,0.0,0.0,90,0.00,,---,0.00,VWS V14.01,2013-04-19 10:10:00,
2013-04-19 03:15:00,43.8,41.1,30.20,NE,48,0.0,0.0,90,0.00,,---,0.00,VWS V14.01,2013-04-19 10:15:00,
2013-04-19 03:20:00,43.7,41.0,30.19,NE,48,0.0,0.0,90,0.00,,---,0.00,VWS V14.01,2013-04-19 10:20:00,
2013-04-19 03:25:00,43.6,40.9,30.19,NE,48,0.0,0.0,90,0.00,,---,0.00,VWS V14.01,2013-04-19 10:25:00,
2013-04-19 03:30:00,43.6,40.9,30.19,NE,46,2.0,3.0,90,0.00,,---,0.00,VWS V14.01,2013-04-19 10:30:00,
2013-04-19 03:35:00,43.5,41.0,30.19,NE,45,2.0,4.0,91,0.00,,---,0.00,VWS V14.01,2013-04-19 10:35:00,
2013-04-19 03:40:00,43.4,41.0,30.19,NE,45,2.0,4.0,91,0.00,,---,0.00,VWS V14.01,2013-04-19 10:40:00,
2013-04-19 03:45:00,43.3,40.8,30.18,NE,45,2.0,2.0,91,0.00,,---,0.00,VWS V14.01,2013-04-19 10:45:00,
2013-04-19 03:50:00,43.3,40.8,30.18,NE,45,0.0,2.0,91,0.00,,---,0.00,VWS V14.01,2013-04-19 10:50:00,
2013-04-19 03:55:00,43.2,40.8,30.18,NE,45,0.0,2.0,91,0.00,,---,0.00,VWS V14.01,2013-04-19 10:55:00,
2013-04-19 04:00:00,43.1,40.9,30.18,NE,45,0.0,2.0,92,0.00,,---,0.00,VWS V14.01,2013-04-19 11:00:00,
2013-04-19 04:05:00,43.1,40.9,30.18,NE,45,0.0,0.0,92,0.00,,---,0.00,VWS V14.01,2013-04-19 11:05:00,
2013-04-19 04:10:00,43.1,40.9,30.18,NE,45,0.0,0.0,92,0.00,,---,0.00,VWS V14.01,2013-04-19 11:10:00,
2013-04-19 04:15:00,43.2,41.0,30.18,NE,45,0.0,0.0,92,0.01,,---,0.01,VWS V14.01,2013-04-19 11:15:00,
2013-04-19 04:20:00,43.2,41.0,30.17,NE,45,0.0,0.0,92,0.01,,---,0.01,VWS V14.01,2013-04-19 11:20:00,
2013-04-19 04:25:00,42.9,40.7,30.17,NE,45,0.0,0.0,92,0.01,,---,0.01,VWS V14.01,2013-04-19 11:25:00,
2013-04-19 04:30:00,42.8,40.6,30.17,NE,45,0.0,0.0,92,0.01,,---,0.01,VWS V14.01,2013-04-19 11:30:00,
2013-04-19 04:35:00,42.7,40.5,30.17,NE,45,0.0,0.0,92,0.01,,---,0.01,VWS V14.01,2013-04-19 11:35:00,
2013-04-19 04:40:00,42.7,40.5,30.17,NE,45,0.0,0.0,92,0.01,,---,0.01,VWS V14.01,2013-04-19 11:40:00,
2013-04-19 04:45:00,42.7,40.5,30.17,NE,45,0.0,0.0,92,0.01,,---,0.01,VWS V14.01,2013-04-19 11:45:00,
2013-04-19 04:50:00,42.7,40.8,30.17,NE,45,0.0,0.0,93,0.01,,---,0.01,VWS V14.01,2013-04-19 11:50:00,
2013-04-19 04:55:00,42.7,40.8,30.17,NE,45,0.0,0.0,93,0.01,,---,0.01,VWS V14.01,2013-04-19 11:55:00,
2013-04-19 05:00:00,42.6,40.7,30.16,NE,45,0.0,0.0,93,0.01,,---,0.01,VWS V14.01,2013-04-19 12:00:00,
2013-04-19 05:04:00,42.6,40.7,30.16,NE,45,0.0,0.0,93,0.01,,---,0.01,VWS V14.01,2013-04-19 12:04:00,
2013-04-19 05:09:00,42.6,40.7,30.16,NE,45,0.0,0.0,93,0.01,,---,0.01,VWS V14.01,2013-04-19 12:09:00,
2013-04-19 05:14:00,42.6,40.7,30.15,NE,45,0.0,0.0,93,0.01,,---,0.01,VWS V14.01,2013-04-19 12:14:00,
2013-04-19 05:15:00,42.6,40.7,30.15,NE,45,0.0,0.0,93,0.01,,---,0.01,VWS V14.01,2013-04-19 12:15:00,
2013-04-19 05:19:00,42.5,40.6,30.15,NE,45,0.0,0.0,93,0.00,,---,0.01,VWS V14.01,2013-04-19 12:19:00,
2013-04-19 05:24:00,42.5,40.6,30.15,NE,45,0.0,0.0,93,0.00,,---,0.01,VWS V14.01,2013-04-19 12:24:00,
2013-04-19 05:29:00,42.5,40.6,30.15,NE,45,0.0,0.0,93,0.00,,---,0.01,VWS V14.01,2013-04-19 12:29:00,
2013-04-19 05:30:00,42.5,40.6,30.15,NE,45,0.0,0.0,93,0.00,,---,0.01,VWS V14.01,2013-04-19 12:30:00,
2013-04-19 05:34:00,42.6,40.7,30.14,NE,45,0.0,0.0,93,0.00,,---,0.01,VWS V14.01,2013-04-19 12:34:00,
2013-04-19 05:39:00,42.6,40.7,30.14,WSW,248,1.0,5.0,93,0.00,,---,0.01,VWS V14.01,2013-04-19 12:39:00,
2013-04-19 05:44:00,42.7,40.8,30.14,WSW,251,0.0,5.0,93,0.00,,---,0.01,VWS V14.01,2013-04-19 12:44:00,
2013-04-19 05:45:00,42.7,40.8,30.14,WSW,250,0.0,5.0,93,0.00,,---,0.01,VWS V14.01,2013-04-19 12:45:00,
2013-04-19 05:49:00,42.9,41.0,30.14,WSW,250,0.0,0.0,93,0.00,,---,0.01,VWS V14.01,2013-04-19 12:49:00,
2013-04-19 05:54:00,42.9,41.0,30.14,WSW,250,0.0,0.0,93,0.00,,---,0.01,VWS V14.01,2013-04-19 12:54:00,
2013-04-19 05:59:00,42.9,41.0,30.14,WSW,250,0.0,0.0,93,0.00,,---,0.01,VWS V14.01,2013-04-19 12:59:00,
2013-04-19 06:00:00,42.9,41.0,30.14,WSW,250,0.0,0.0,93,0.00,,---,0.01,VWS V14.01,2013-04-19 13:00:00,
2013-04-19 06:04:00,42.9,41.0,30.13,WSW,251,0.0,0.0,93,0.00,,---,0.01,VWS V14.01,2013-04-19 13:04:00,
2013-04-19 06:09:00,42.8,40.9,30.13,WSW,250,0.0,0.0,93,0.00,,---,0.01,VWS V14.01,2013-04-19 13:09:00,
2013-04-19 06:14:00,42.7,40.8,30.13,WSW,250,0.0,0.0,93,0.00,,---,0.01,VWS V14.01,2013-04-19 13:14:00,
2013-04-19 06:15:00,42.8,40.9,30.13,WSW,250,0.0,0.0,93,0.00,,---,0.01,VWS V14.01,2013-04-19 13:15:00,
2013-04-19 06:19:00,42.7,40.8,30.13,WSW,250,0.0,0.0,93,0.00,,---,0.01,VWS V14.01,2013-04-19 13:19:00,
2013-04-19 06:24:00,42.7,40.8,30.13,WSW,251,0.0,0.0,93,0.00,,---,0.01,VWS V14.01,2013-04-19 13:24:00,
2013-04-19 06:29:00,42.7,40.8,30.13,WSW,250,0.0,0.0,93,0.00,,---,0.01,VWS V14.01,2013-04-19 13:29:00,
2013-04-19 06:30:00,42.7,40.8,30.13,WSW,251,0.0,0.0,93,0.00,,---,0.01,VWS V14.01,2013-04-19 13:30:00,
2013-04-19 06:34:00,42.7,40.8,30.12,WSW,250,0.0,0.0,93,0.00,,---,0.01,VWS V14.01,2013-04-19 13:34:00,
2013-04-19 06:39:00,42.7,40.8,30.12,WSW,251,0.0,0.0,93,0.00,,---,0.01,VWS V14.01,2013-04-19 13:39:00,
2013-04-19 06:44:00,42.7,40.8,30.12,NNE,21,2.0,3.0,93,0.00,,---,0.01,VWS V14.01,2013-04-19 13:44:00,
2013-04-19 06:45:00,42.7,40.8,30.12,NNE,21,2.0,3.0,93,0.00,,---,0.01,VWS V14.01,2013-04-19 13:45:00,
2013-04-19 06:49:00,42.7,40.8,30.12,NNE,21,2.0,2.0,93,0.00,,---,0.01,VWS V14.01,2013-04-19 13:49:00,
2013-04-19 06:54:00,42.7,40.8,30.12,NNE,21,0.0,2.0,93,0.00,,---,0.01,VWS V14.01,2013-04-19 13:54:00,
2013-04-19 06:59:00,42.8,40.9,30.12,NNE,21,0.0,2.0,93,0.00,,---,0.01,VWS V14.01,2013-04-19 13:59:00,
2013-04-19 07:00:00,42.8,40.9,30.12,NNE,21,0.0,2.0,93,0.00,,---,0.01,VWS V14.01,2013-04-19 14:00:00,
2013-04-19 07:04:00,42.8,40.9,30.12,NNE,21,0.0,0.0,93,0.00,,---,0.01,VWS V14.01,2013-04-19 14:04:00,
2013-04-19 07:09:00,42.8,41.2,30.11,NNE,21,0.0,0.0,94,0.00,,---,0.01,VWS V14.01,2013-04-19 14:09:00,
2013-04-19 07:14:00,42.8,41.2,30.10,NNE,21,0.0,0.0,94,0.00,,---,0.01,VWS V14.01,2013-04-19 14:14:00,
2013-04-19 07:15:00,42.8,41.2,30.10,NNE,21,0.0,0.0,94,0.00,,---,0.01,VWS V14.01,2013-04-19 14:15:00,
2013-04-19 07:19:00,42.8,41.2,30.11,NNE,21,0.0,0.0,94,0.00,,---,0.01,VWS V14.01,2013-04-19 14:19:00,
2013-04-19 07:24:00,43.0,41.4,30.11,NNE,21,0.0,0.0,94,0.00,,---,0.01,VWS V14.01,2013-04-19 14:24:00,
2013-04-19 07:29:00,43.2,41.6,30.10,NNE,21,0.0,0.0,94,0.00,,---,0.01,VWS V14.01,2013-04-19 14:29:00,
2013-04-19 07:30:00,43.2,41.6,30.10,NNE,21,0.0,0.0,94,0.00,,---,0.01,VWS V14.01,2013-04-19 14:30:00,
2013-04-19 07:34:00,43.3,41.7,30.10,NNE,21,0.0,0.0,94,0.00,,---,0.01,VWS V14.01,2013-04-19 14:34:00,
2013-04-19 07:39:00,43.4,41.8,30.10,NNE,21,0.0,0.0,94,0.00,,---,0.01,VWS V14.01,2013-04-19 14:39:00,
2013-04-19 07:44:00,43.6,42.0,30.10,NNE,21,0.0,0.0,94,0.00,,---,0.01,VWS V14.01,2013-04-19 14:44:00,
2013-04-19 07:45:00,43.6,41.7,30.10,NNE,21,0.0,0.0,93,0.00,,---,0.01,VWS V14.01,2013-04-19 14:45:00,
2013-04-19 07:49:00,43.7,41.8,30.10,NNE,21,0.0,0.0,93,0.00,,---,0.01,VWS V14.01,2013-04-19 14:49:00,
2013-04-19 07:54:00,43.8,41.9,30.10,NNE,21,0.0,0.0,93,0.00,,---,0.01,VWS V14.01,2013-04-19 14:54:00,
2013-04-19 07:59:00,43.8,41.9,30.10,NNE,21,0.0,0.0,93,0.00,,---,0.01,VWS V14.01,2013-04-19 14:59:00,
2013-04-19 08:00:00,43.8,41.9,30.10,NNE,21,0.0,0.0,93,0.00,,---,0.01,VWS V14.01,2013-04-19 15:00:00,
2013-04-19 08:04:00,43.9,42.0,30.10,West,281,1.0,4.0,93,0.00,,---,0.01,VWS V14.01,2013-04-19 15:04:00,
2013-04-19 08:09:00,43.8,41.9,30.10,West,281,1.0,4.0,93,0.00,,---,0.01,VWS V14.01,2013-04-19 15:09:00,
2013-04-19 08:14:00,43.7,41.8,30.10,West,281,1.0,4.0,93,0.00,,---,0.01,VWS V14.01,2013-04-19 15:14:00,
2013-04-19 08:15:00,43.8,41.9,30.10,West,281,1.0,4.0,93,0.00,,---,0.01,VWS V14.01,2013-04-19 15:15:00,
2013-04-19 08:19:00,43.8,41.9,30.10,West,281,1.0,3.0,93,0.00,,---,0.01,VWS V14.01,2013-04-19 15:19:00,
2013-04-19 08:24:00,43.8,41.9,30.10,West,281,2.0,3.0,93,0.00,,---,0.01,VWS V14.01,2013-04-19 15:24:00,
2013-04-19 08:29:00,43.9,42.0,30.10,West,281,0.0,3.0,93,0.00,,---,0.01,VWS V14.01,2013-04-19 15:29:00,
2013-04-19 08:30:00,43.9,42.0,30.10,West,281,0.0,3.0,93,0.00,,---,0.01,VWS V14.01,2013-04-19 15:30:00,
2013-04-19 08:34:00,44.0,42.1,30.10,West,281,0.0,0.0,93,0.00,,---,0.01,VWS V14.01,2013-04-19 15:34:00,
2013-04-19 08:39:00,44.1,42.2,30.10,West,281,0.0,0.0,93,0.01,,---,0.02,VWS V14.01,2013-04-19 15:39:00,
2013-04-19 08:44:00,44.2,42.3,30.10,West,281,0.0,0.0,93,0.01,,---,0.02,VWS V14.01,2013-04-19 15:44:00,
2013-04-19 08:45:00,44.2,42.3,30.10,West,281,0.0,0.0,93,0.01,,---,0.02,VWS V14.01,2013-04-19 15:45:00,
2013-04-19 08:49:00,44.3,42.4,30.10,West,281,0.0,0.0,93,0.01,,---,0.02,VWS V14.01,2013-04-19 15:49:00,
2013-04-19 08:54:00,44.5,42.6,30.10,West,281,0.0,0.0,93,0.01,,---,0.02,VWS V14.01,2013-04-19 15:54:00,
2013-04-19 08:59:00,44.6,42.7,30.10,West,281,0.0,0.0,93,0.01,,---,0.02,VWS V14.01,2013-04-19 15:59:00,
2013-04-19 09:00:00,44.7,42.8,30.10,West,281,0.0,0.0,93,0.01,,---,0.02,VWS V14.01,2013-04-19 16:00:00,
2013-04-19 09:04:00,44.8,42.9,30.10,West,281,0.0,0.0,93,0.02,,---,0.03,VWS V14.01,2013-04-19 16:04:00,
2013-04-19 09:09:00,45.0,42.8,30.10,West,281,0.0,0.0,92,0.02,,---,0.03,VWS V14.01,2013-04-19 16:09:00,
2013-04-19 09:14:00,45.1,42.9,30.10,West,281,0.0,0.0,92,0.03,,---,0.04,VWS V14.01,2013-04-19 16:14:00,
2013-04-19 09:15:00,45.1,42.9,30.10,West,281,0.0,0.0,92,0.03,,---,0.04,VWS V14.01,2013-04-19 16:15:00,
2013-04-19 09:19:00,45.2,43.0,30.09,West,281,0.0,0.0,92,0.03,,---,0.04,VWS V14.01,2013-04-19 16:19:00,
2013-04-19 09:24:00,45.3,43.1,30.09,NNW,340,0.0,0.0,92,0.04,,---,0.05,VWS V14.01,2013-04-19 16:24:00,
2013-04-19 09:29:00,45.4,42.9,30.09,NNE,17,0.0,0.0,91,0.04,,---,0.05,VWS V14.01,2013-04-19 16:29:00,
2013-04-19 09:30:00,45.4,42.9,30.09,NNE,24,0.0,0.0,91,0.04,,---,0.05,VWS V14.01,2013-04-19 16:30:00,
2013-04-19 09:34:00,45.5,43.0,30.09,NE,45,0.0,0.0,91,0.04,,---,0.05,VWS V14.01,2013-04-19 16:34:00,
2013-04-19 09:39:00,45.6,43.1,30.09,ENE,62,1.0,1.0,91,0.04,,---,0.05,VWS V14.01,2013-04-19 16:39:00,
2013-04-19 09:44:00,45.8,43.3,30.09,ENE,65,0.0,4.0,91,0.04,,---,0.05,VWS V14.01,2013-04-19 16:44:00,
2013-04-19 09:45:00,45.8,43.3,30.09,ENE,65,0.0,4.0,91,0.05,,---,0.06,VWS V14.01,2013-04-19 16:45:00,
2013-04-19 09:49:00,45.9,43.4,30.08,ENE,65,0.0,0.0,91,0.04,,---,0.06,VWS V14.01,2013-04-19 16:49:00,
2013-04-19 09:54:00,45.9,43.1,30.08,ENE,65,0.0,0.0,90,0.04,,---,0.06,VWS V14.01,2013-04-19 16:54:00,
2013-04-19 09:59:00,46.0,43.2,30.08,ENE,65,0.0,0.0,90,0.04,,---,0.06,VWS V14.01,2013-04-19 16:59:00,
2013-04-19 10:00:00,46.1,43.3,30.08,ENE,65,0.0,0.0,90,0.04,,---,0.06,VWS V14.01,2013-04-19 17:00:00,
2013-04-19 10:04:00,46.2,43.4,30.08,ENE,65,0.0,0.0,90,0.04,,---,0.06,VWS V14.01,2013-04-19 17:04:00,
2013-04-19 10:09:00,46.4,43.6,30.08,NE,55,3.0,4.0,90,0.04,,---,0.06,VWS V14.01,2013-04-19 17:09:00,
2013-04-19 10:14:00,46.5,43.7,30.08,NE,55,2.0,4.0,90,0.04,,---,0.06,VWS V14.01,2013-04-19 17:14:00,
2013-04-19 10:15:00,46.5,43.7,30.08,NE,55,2.0,4.0,90,0.04,,---,0.06,VWS V14.01,2013-04-19 17:15:00,
2013-04-19 10:19:00,46.5,43.4,30.08,NE,55,1.0,2.0,89,0.02,,---,0.06,VWS V14.01,2013-04-19 17:19:00,
2013-04-19 10:24:00,46.6,43.5,30.08,NE,55,0.0,2.0,89,0.02,,---,0.06,VWS V14.01,2013-04-19 17:24:00,
2013-04-19 10:29:00,46.8,43.7,30.09,NE,55,0.0,2.0,89,0.02,,---,0.06,VWS V14.01,2013-04-19 17:29:00,
2013-04-19 10:30:00,46.8,43.7,30.08,NE,55,0.0,2.0,89,0.02,,---,0.06,VWS V14.01,2013-04-19 17:30:00,
2013-04-19 10:34:00,47.0,43.9,30.08,NE,55,0.0,0.0,89,0.01,,---,0.06,VWS V14.01,2013-04-19 17:34:00,
2013-04-19 10:39:00,47.2,44.1,30.08,NE,55,0.0,0.0,89,0.01,,---,0.06,VWS V14.01,2013-04-19 17:39:00,
2013-04-19 10:44:00,47.6,44.5,30.08,East,95,0.0,4.0,89,0.01,,---,0.06,VWS V14.01,2013-04-19 17:44:00,
2013-04-19 10:45:00,47.7,44.6,30.08,East,95,0.0,4.0,89,0.01,,---,0.06,VWS V14.01,2013-04-19 17:45:00,
2013-04-19 10:49:00,47.9,44.5,30.08,ESE,103,0.0,0.0,88,0.00,,---,0.06,VWS V14.01,2013-04-19 17:49:00,
2013-04-19 10:54:00,48.2,44.8,30.08,ESE,103,0.0,0.0,88,0.00,,---,0.06,VWS V14.01,2013-04-19 17:54:00,
2013-04-19 10:59:00,48.4,44.7,30.08,ESE,103,0.0,1.0,87,0.00,,---,0.06,VWS V14.01,2013-04-19 17:59:00,
2013-04-19 11:00:00,48.4,44.4,30.08,ESE,103,0.0,1.0,86,0.00,,---,0.06,VWS V14.01,2013-04-19 18:00:00,
2013-04-19 11:03:00,48.5,44.2,30.08,ESE,103,0.0,0.0,85,0.00,,---,0.06,VWS V14.01,2013-04-19 18:03:00,
2013-04-19 11:08:00,48.7,44.4,30.08,ESE,103,2.0,5.0,85,0.00,,---,0.06,VWS V14.01,2013-04-19 18:08:00,
2013-04-19 11:13:00,48.9,44.3,30.08,ESE,118,0.0,6.0,84,0.00,,---,0.06,VWS V14.01,2013-04-19 18:13:00,
2013-04-19 11:15:00,49.0,44.7,30.07,ESE,118,0.0,6.0,85,0.00,,---,0.06,VWS V14.01,2013-04-19 18:15:00,
2013-04-19 11:18:00,49.1,44.2,30.07,SE,132,0.0,7.0,83,0.00,,---,0.06,VWS V14.01,2013-04-19 18:18:00,
2013-04-19 11:23:00,49.2,44.3,30.07,SE,132,0.0,7.0,83,0.00,,---,0.06,VWS V14.01,2013-04-19 18:23:00,
2013-04-19 11:28:00,49.6,44.3,30.07,SSE,150,5.0,9.0,82,0.00,,---,0.06,VWS V14.01,2013-04-19 18:28:00,
2013-04-19 11:30:00,49.8,44.2,30.07,SSE,151,0.0,9.0,81,0.00,,---,0.06,VWS V14.01,2013-04-19 18:30:00,
2013-04-19 11:33:00,50.6,44.0,30.07,SSE,167,6.0,9.0,78,0.00,,---,0.06,VWS V14.01,2013-04-19 18:33:00,
2013-04-19 11:38:00,51.7,45.7,30.06,SSE,152,10.0,16.0,80,0.00,,---,0.06,VWS V14.01,2013-04-19 18:38:00,
2013-04-19 11:43:00,52.5,43.0,30.06,SW,223,23.0,28.0,70,0.00,,---,0.06,VWS V14.01,2013-04-19 18:43:00,
2013-04-19 11:45:00,52.7,43.9,30.06,SSW,199,2.0,28.0,72,0.00,,---,0.06,VWS V14.01,2013-04-19 18:45:00,
2013-04-19 11:48:00,53.2,42.2,30.06,SW,227,18.0,21.0,66,0.00,,---,0.06,VWS V14.01,2013-04-19 18:48:00,
2013-04-19 11:53:00,53.6,42.5,30.06,SSW,196,9.0,21.0,66,0.00,,---,0.06,VWS V14.01,2013-04-19 18:53:00,
2013-04-19 11:58:00,53.8,42.7,30.06,SSE,165,7.0,21.0,66,0.00,,---,0.06,VWS V14.01,2013-04-19 18:58:00,
2013-04-19 12:00:00,53.7,42.2,30.06,South,181,11.0,21.0,65,0.00,,---,0.06,VWS V14.01,2013-04-19 19:00:00,
2013-04-19 12:03:00,53.6,42.5,30.06,SSW,209,2.0,16.0,66,0.00,,---,0.06,VWS V14.01,2013-04-19 19:03:00,
2013-04-19 12:08:00,53.6,42.1,30.06,South,179,2.0,16.0,65,0.00,,---,0.06,VWS V14.01,2013-04-19 19:08:00,
2013-04-19 12:13:00,53.0,42.7,30.06,SW,217,7.0,16.0,68,0.00,,---,0.06,VWS V14.01,2013-04-19 19:13:00,
2013-04-19 12:15:00,53.0,43.1,30.07,SW,222,7.0,16.0,69,0.00,,---,0.06,VWS V14.01,2013-04-19 19:15:00,
2013-04-19 12:18:00,53.0,42.3,30.06,SW,225,13.0,13.0,67,0.00,,---,0.06,VWS V14.01,2013-04-19 19:18:00,
2013-04-19 12:23:00,53.1,42.1,30.06,SW,216,5.0,13.0,66,0.00,,---,0.06,VWS V14.01,2013-04-19 19:23:00,
2013-04-19 12:28:00,52.8,41.0,30.06,SW,219,10.0,15.0,64,0.00,,---,0.06,VWS V14.01,2013-04-19 19:28:00,
2013-04-19 12:30:00,52.8,41.0,30.06,SW,222,8.0,15.0,64,0.00,,---,0.06,VWS V14.01,2013-04-19 19:30:00,
2013-04-19 12:33:00,52.9,41.5,30.06,SSW,209,7.0,13.0,65,0.00,,---,0.06,VWS V14.01,2013-04-19 19:33:00,
2013-04-19 12:38:00,53.2,42.2,30.06,SW,227,13.0,14.0,66,0.00,,---,0.06,VWS V14.01,2013-04-19 19:38:00,
2013-04-19 12:43:00,53.5,40.8,30.06,SSW,198,16.0,20.0,62,0.00,,---,0.06,VWS V14.01,2013-04-19 19:43:00,
2013-04-19 12:45:00,53.5,40.4,30.06,SSW,210,6.0,20.0,61,0.00,,---,0.06,VWS V14.01,2013-04-19 19:45:00,
2013-04-19 12:48:00,53.7,41.0,30.06,SW,219,14.0,14.0,62,0.00,,---,0.06,VWS V14.01,2013-04-19 19:48:00,
2013-04-19 12:53:00,53.8,41.9,30.06,SW,227,15.0,15.0,64,0.00,,---,0.06,VWS V14.01,2013-04-19 19:53:00,
2013-04-19 12:58:00,53.7,41.0,30.05,SW,215,18.0,24.0,62,0.00,,---,0.06,VWS V14.01,2013-04-19 19:58:00,
2013-04-19 13:00:00,53.7,40.6,30.05,SSW,211,16.0,24.0,61,0.00,,---,0.06,VWS V14.01,2013-04-19 20:00:00,
2013-04-19 13:03:00,53.5,40.4,30.05,SW,222,17.0,22.0,61,0.00,,---,0.06,VWS V14.01,2013-04-19 20:03:00,
2013-04-19 13:08:00,53.2,39.7,30.05,WSW,248,15.0,24.0,60,0.00,,---,0.06,VWS V14.01,2013-04-19 20:08:00,
2013-04-19 13:13:00,53.2,40.5,30.05,SW,221,20.0,24.0,62,0.00,,---,0.06,VWS V14.01,2013-04-19 20:13:00,
2013-04-19 13:15:00,53.1,40.0,30.05,SW,214,18.0,24.0,61,0.00,,---,0.06,VWS V14.01,2013-04-19 20:15:00,
2013-04-19 13:18:00,52.6,42.0,30.06,SW,231,17.0,24.0,67,0.00,,---,0.06,VWS V14.01,2013-04-19 20:18:00,
2013-04-19 13:23:00,52.4,41.0,30.05,SW,232,23.0,24.0,65,0.00,,---,0.06,VWS V14.01,2013-04-19 20:23:00,
2013-04-19 13:28:00,52.9,40.2,30.05,WSW,237,17.0,24.0,62,0.00,,---,0.06,VWS V14.01,2013-04-19 20:28:00,
2013-04-19 13:30:00,53.2,41.0,30.05,SW,235,19.0,24.0,63,0.00,,---,0.06,VWS V14.01,2013-04-19 20:30:00,
2013-04-19 13:33:00,53.9,40.3,30.05,SSW,200,7.0,26.0,60,0.00,,---,0.06,VWS V14.01,2013-04-19 20:33:00,
2013-04-19 13:38:00,54.3,40.7,30.05,South,191,13.0,27.0,60,0.00,,---,0.06,VWS V14.01,2013-04-19 20:38:00,
2013-04-19 13:43:00,54.7,41.1,30.05,SSW,202,11.0,27.0,60,0.00,,---,0.06,VWS V14.01,2013-04-19 20:43:00,
2013-04-19 13:45:00,54.8,40.8,30.05,SW,234,23.0,28.0,59,0.00,,---,0.06,VWS V14.01,2013-04-19 20:45:00,
2013-04-19 13:48:00,54.9,41.7,30.05,WSW,238,23.0,26.0,61,0.00,,---,0.06,VWS V14.01,2013-04-19 20:48:00,
2013-04-19 13:53:00,55.1,41.9,30.05,SW,217,13.0,33.0,61,0.00,,---,0.06,VWS V14.01,2013-04-19 20:53:00,
2013-04-19 13:58:00,55.6,42.0,30.05,SSW,205,15.0,33.0,60,0.00,,---,0.06,VWS V14.01,2013-04-19 20:58:00,
2013-04-19 14:00:00,55.7,41.2,30.05,SSW,211,20.0,33.0,58,0.00,,---,0.06,VWS V14.01,2013-04-19 21:00:00,
2013-04-19 14:03:00,55.1,40.6,30.06,SW,223,9.0,30.0,58,0.00,,---,0.06,VWS V14.01,2013-04-19 21:03:00,
2013-04-19 14:08:00,54.8,40.3,30.05,SSW,199,16.0,30.0,58,0.00,,---,0.06,VWS V14.01,2013-04-19 21:08:00,
2013-04-19 14:13:00,54.2,39.8,30.05,SSW,194,14.0,30.0,58,0.00,,---,0.06,VWS V14.01,2013-04-19 21:13:00,
2013-04-19 14:15:00,54.1,39.2,30.06,SW,225,12.0,30.0,57,0.00,,---,0.06,VWS V14.01,2013-04-19 21:15:00,
2013-04-19 14:18:00,54.1,40.1,30.06,SW,215,23.0,23.0,59,0.00,,---,0.06,VWS V14.01,2013-04-19 21:18:00,
2013-04-19 14:23:00,54.0,40.0,30.06,SW,214,6.0,25.0,59,0.00,,---,0.06,VWS V14.01,2013-04-19 21:23:00,
2013-04-19 14:28:00,54.9,40.4,30.05,SE,126,5.0,25.0,58,0.00,,---,0.06,VWS V14.01,2013-04-19 21:28:00,
2013-04-19 14:30:00,54.9,40.0,30.05,SSW,210,14.0,25.0,57,0.00,,---,0.06,VWS V14.01,2013-04-19 21:30:00,
2013-04-19 14:33:00,54.6,39.7,30.05,SW,217,17.0,23.0,57,0.00,,---,0.06,VWS V14.01,2013-04-19 21:33:00,
2013-04-19 14:38:00,55.1,40.2,30.05,SSW,200,9.0,26.0,57,0.00,,---,0.06,VWS V14.01,2013-04-19 21:38:00,
2013-04-19 14:43:00,54.6,39.7,30.05,SW,230,18.0,27.0,57,0.00,,---,0.06,VWS V14.01,2013-04-19 21:43:00,
2013-04-19 14:45:00,54.6,39.7,30.05,South,188,10.0,27.0,57,0.00,,---,0.06,VWS V14.01,2013-04-19 21:45:00,
2013-04-19 14:48:00,55.3,39.9,30.05,SW,225,5.0,26.0,56,0.00,,---,0.06,VWS V14.01,2013-04-19 21:48:00,
2013-04-19 14:53:00,55.2,39.8,30.05,SSW,211,19.0,30.0,56,0.00,,---,0.06,VWS V14.01,2013-04-19 21:53:00,
2013-04-19 14:58:00,55.5,40.1,30.05,SSW,202,13.0,30.0,56,0.00,,---,0.06,VWS V14.01,2013-04-19 21:58:00,
2013-04-19 15:00:00,55.8,40.3,30.05,SSW,201,7.0,30.0,56,0.00,,---,0.06,VWS V14.01,2013-04-19 22:00:00,
2013-04-19 15:03:00,56.3,40.4,30.05,SSW,195,8.0,24.0,55,0.00,,---,0.06,VWS V14.01,2013-04-19 22:03:00,
2013-04-19 15:08:00,56.0,40.1,30.05,SSW,202,4.0,27.0,55,0.00,,---,0.06,VWS V14.01,2013-04-19 22:08:00,
2013-04-19 15:13:00,56.2,40.3,30.05,SSW,199,16.0,27.0,55,0.00,,---,0.06,VWS V14.01,2013-04-19 22:13:00,
2013-04-19 15:15:00,56.1,39.2,30.05,WSW,237,18.0,28.0,53,0.00,,---,0.06,VWS V14.01,2013-04-19 22:15:00,
2013-04-19 15:18:00,55.7,39.3,30.05,SW,232,19.0,34.0,54,0.00,,---,0.06,VWS V14.01,2013-04-19 22:18:00,
2013-04-19 15:23:00,55.4,39.0,30.05,SW,219,21.0,34.0,54,0.00,,---,0.06,VWS V14.01,2013-04-19 22:23:00,
2013-04-19 15:28:00,55.2,39.3,30.05,SSW,213,15.0,34.0,55,0.00,,---,0.06,VWS V14.01,2013-04-19 22:28:00,
2013-04-19 15:30:00,55.1,39.7,30.05,SW,221,11.0,34.0,56,0.00,,---,0.06,VWS V14.01,2013-04-19 22:30:00,
2013-04-19 15:33:00,55.1,39.2,30.05,SSE,155,6.0,22.0,55,0.00,,---,0.06,VWS V14.01,2013-04-19 22:33:00,
2013-04-19 15:38:00,55.4,39.0,30.05,SSW,209,12.0,23.0,54,0.00,,---,0.06,VWS V14.01,2013-04-19 22:38:00,
2013-04-19 15:43:00,55.8,38.9,30.04,SW,226,27.0,34.0,53,0.00,,---,0.06,VWS V14.01,2013-04-19 22:43:00,
2013-04-19 15:45:00,55.4,38.6,30.05,SW,222,19.0,34.0,53,0.00,,---,0.06,VWS V14.01,2013-04-19 22:45:00,
2013-04-19 15:48:00,55.1,40.2,30.05,SSW,208,5.0,19.0,57,0.00,,---,0.06,VWS V14.01,2013-04-19 22:48:00,
2013-04-19 15:53:00,54.8,39.0,30.05,SSE,165,5.0,21.0,55,0.00,,---,0.06,VWS V14.01,2013-04-19 22:53:00,
2013-04-19 15:58:00,54.2,38.4,30.05,SW,215,24.0,24.0,55,0.00,,---,0.06,VWS V14.01,2013-04-19 22:58:00,
2013-04-19 16:00:00,54.0,37.8,30.05,SW,234,11.0,24.0,54,0.00,,---,0.06,VWS V14.01,2013-04-19 23:00:00,
2013-04-19 16:03:00,53.9,38.1,30.05,SSW,211,8.0,19.0,55,0.00,,---,0.06,VWS V14.01,2013-04-19 23:03:00,
2013-04-19 16:08:00,53.7,38.4,30.05,SSW,192,4.0,25.0,56,0.00,,---,0.06,VWS V14.01,2013-04-19 23:08:00,
2013-04-19 16:13:00,53.8,38.9,30.04,SSW,205,13.0,25.0,57,0.00,,---,0.06,VWS V14.01,2013-04-19 23:13:00,
2013-04-19 16:15:00,53.9,38.1,30.05,SW,226,9.0,25.0,55,0.00,,---,0.06,VWS V14.01,2013-04-19 23:15:00,
2013-04-19 16:18:00,54.0,37.8,30.04,SW,227,15.0,26.0,54,0.00,,---,0.06,VWS V14.01,2013-04-19 23:18:00,
2013-04-19 16:23:00,54.0,38.7,30.05,SW,221,19.0,27.0,56,0.00,,---,0.06,VWS V14.01,2013-04-19 23:23:00,
2013-04-19 16:28:00,54.1,37.8,30.04,SSW,211,11.0,27.0,54,0.00,,---,0.06,VWS V14.01,2013-04-19 23:28:00,
2013-04-19 16:30:00,54.0,38.2,30.05,SSE,160,5.0,27.0,55,0.00,,---,0.06,VWS V14.01,2013-04-19 23:30:00,
2013-04-19 16:33:00,54.3,38.5,30.05,SSW,192,17.0,21.0,55,0.00,,---,0.06,VWS V14.01,2013-04-19 23:33:00,
2013-04-19 16:38:00,53.9,37.2,30.05,South,188,15.0,24.0,53,0.00,,---,0.06,VWS V14.01,2013-04-19 23:38:00,
2013-04-19 16:43:00,53.5,38.2,30.05,SW,219,18.0,24.0,56,0.00,,---,0.06,VWS V14.01,2013-04-19 23:43:00,
2013-04-19 16:45:00,53.5,37.8,30.05,South,169,16.0,24.0,55,0.00,,---,0.06,VWS V14.01,2013-04-19 23:45:00,
2013-04-19 16:48:00,53.8,38.0,30.05,SSW,202,18.0,24.0,55,0.00,,---,0.06,VWS V14.01,2013-04-19 23:48:00,
2013-04-19 16:53:00,54.1,37.4,30.05,SW,225,1.0,24.0,53,0.00,,---,0.06,VWS V14.01,2013-04-19 23:53:00,
2013-04-19 16:58:00,54.0,37.8,30.05,SSW,198,14.0,24.0,54,0.00,,---,0.06,VWS V14.01,2013-04-19 23:58:00,
2013-04-19 17:00:00,53.7,37.0,30.05,South,182,7.0,24.0,53,0.00,,---,0.06,VWS V14.01,2013-04-20 00:00:00,
2013-04-19 17:03:00,53.6,37.8,30.05,SW,221,8.0,13.0,55,0.00,,---,0.06,VWS V14.01,2013-04-20 00:03:00,
2013-04-19 17:08:00,53.3,37.6,30.05,SW,218,22.0,22.0,55,0.00,,---,0.06,VWS V14.01,2013-04-20 00:08:00,
2013-04-19 17:13:00,53.2,36.5,30.06,SW,215,10.0,24.0,53,0.00,,---,0.06,VWS V14.01,2013-04-20 00:13:00,
2013-04-19 17:15:00,53.1,37.8,30.06,SSW,213,15.0,24.0,56,0.00,,---,0.06,VWS V14.01,2013-04-20 00:15:00,
2013-04-19 17:18:00,53.1,36.9,30.06,SW,219,20.0,25.0,54,0.00,,---,0.06,VWS V14.01,2013-04-20 00:18:00,
2013-04-19 17:23:00,52.9,37.2,30.06,SSW,213,10.0,25.0,55,0.00,,---,0.06,VWS V14.01,2013-04-20 00:23:00,
2013-04-19 17:28:00,52.9,36.7,30.06,SSW,198,13.0,25.0,54,0.00,,---,0.06,VWS V14.01,2013-04-20 00:28:00,
2013-04-19 17:30:00,53.0,36.8,30.06,SSW,207,9.0,25.0,54,0.00,,---,0.06,VWS V14.01,2013-04-20 00:30:00,
2013-04-19 17:33:00,52.9,36.7,30.06,SW,222,11.0,20.0,54,0.00,,---,0.06,VWS V14.01,2013-04-20 00:33:00,
2013-04-19 17:38:00,52.8,37.1,30.07,SW,214,12.0,22.0,55,0.00,,---,0.06,VWS V14.01,2013-04-20 00:38:00,
2013-04-19 17:43:00,53.2,38.4,30.06,South,188,2.0,22.0,57,0.00,,---,0.06,VWS V14.01,2013-04-20 00:43:00,
2013-04-19 17:45:00,53.2,38.4,30.06,SSW,193,9.0,22.0,57,0.00,,---,0.06,VWS V14.01,2013-04-20 00:45:00,
2013-04-19 17:47:00,53.0,38.2,30.06,SSE,164,5.0,19.0,57,0.00,,---,0.06,VWS V14.01,2013-04-20 00:47:00,
2013-04-19 17:52:00,52.6,37.8,30.07,SW,218,1.0,27.0,57,0.00,,---,0.06,VWS V14.01,2013-04-20 00:52:00,
2013-04-19 17:57:00,52.3,37.5,30.07,SW,219,8.0,27.0,57,0.00,,---,0.06,VWS V14.01,2013-04-20 00:57:00,
2013-04-19 18:00:00,52.2,37.4,30.07,SW,218,12.0,27.0,57,0.00,,---,0.06,VWS V14.01,2013-04-20 01:00:00,
2013-04-19 18:02:00,52.2,38.3,30.07,South,184,1.0,17.0,59,0.00,,---,0.06,VWS V14.01,2013-04-20 01:02:00,
2013-04-19 18:07:00,52.1,37.8,30.07,SSW,206,12.0,17.0,58,0.00,,---,0.06,VWS V14.01,2013-04-20 01:07:00,
2013-04-19 18:12:00,51.7,38.7,30.07,SW,221,9.0,17.0,61,0.00,,---,0.06,VWS V14.01,2013-04-20 01:12:00,
2013-04-19 18:15:00,51.4,38.4,30.08,South,180,0.0,17.0,61,0.00,,---,0.06,VWS V14.01,2013-04-20 01:15:00,
2013-04-19 18:17:00,51.2,37.8,30.08,South,184,1.0,12.0,60,0.00,,---,0.06,VWS V14.01,2013-04-20 01:17:00,
2013-04-19 18:22:00,51.0,37.6,30.08,SW,215,4.0,12.0,60,0.00,,---,0.06,VWS V14.01,2013-04-20 01:22:00,
2013-04-19 18:27:00,50.8,37.8,30.08,South,186,0.0,18.0,61,0.00,,---,0.06,VWS V14.01,2013-04-20 01:27:00,
2013-04-19 18:30:00,50.8,37.4,30.08,South,171,7.0,18.0,60,0.00,,---,0.06,VWS V14.01,2013-04-20 01:30:00,
2013-04-19 18:32:00,50.8,37.4,30.08,South,182,2.0,10.0,60,0.00,,---,0.06,VWS V14.01,2013-04-20 01:32:00,
2013-04-19 18:37:00,50.6,37.7,30.08,South,190,1.0,18.0,61,0.00,,---,0.06,VWS V14.01,2013-04-20 01:37:00,
2013-04-19 18:42:00,50.4,37.5,30.08,WSW,240,8.0,18.0,61,0.00,,---,0.06,VWS V14.01,2013-04-20 01:42:00,
2013-04-19 18:45:00,50.4,37.5,30.08,SSW,205,1.0,18.0,61,0.00,,---,0.06,VWS V14.01,2013-04-20 01:45:00,
2013-04-19 18:47:00,50.3,37.8,30.08,SSW,192,5.0,10.0,62,0.00,,---,0.06,VWS V14.01,2013-04-20 01:47:00,
2013-04-19 18:52:00,50.2,37.7,30.08,SSE,160,4.0,14.0,62,0.00,,---,0.06,VWS V14.01,2013-04-20 01:52:00,
2013-04-19 18:57:00,50.5,37.6,30.08,SW,217,5.0,15.0,61,0.00,,---,0.06,VWS V14.01,2013-04-20 01:57:00,
2013-04-19 19:00:00,50.6,37.2,30.09,SSW,203,2.0,15.0,60,0.00,,---,0.06,VWS V14.01,2013-04-20 02:00:00,
2013-04-19 19:02:00,50.8,37.4,30.09,SSW,192,3.0,19.0,60,0.00,,---,0.06,VWS V14.01,2013-04-20 02:02:00,
2013-04-19 19:07:00,50.8,37.4,30.09,SSW,211,13.0,19.0,60,0.00,,---,0.06,VWS V14.01,2013-04-20 02:07:00,
2013-04-19 19:12:00,50.7,37.8,30.09,SSW,213,16.0,19.0,61,0.00,,---,0.06,VWS V14.01,2013-04-20 02:12:00,
2013-04-19 19:15:00,50.5,37.2,30.09,SW,227,13.0,19.0,60,0.00,,---,0.06,VWS V14.01,2013-04-20 02:15:00,
2013-04-19 19:17:00,50.4,37.5,30.09,SW,215,11.0,15.0,61,0.00,,---,0.06,VWS V14.01,2013-04-20 02:17:00,
2013-04-19 19:22:00,49.9,37.0,30.09,SW,220,11.0,21.0,61,0.00,,---,0.06,VWS V14.01,2013-04-20 02:22:00,
2013-04-19 19:27:00,49.6,37.1,30.09,SW,230,10.0,21.0,62,0.00,,---,0.06,VWS V14.01,2013-04-20 02:27:00,
2013-04-19 19:30:00,49.4,37.3,30.09,SSW,210,8.0,21.0,63,0.00,,---,0.06,VWS V14.01,2013-04-20 02:30:00,
2013-04-19 19:32:00,49.3,37.2,30.09,SW,230,6.0,9.0,63,0.00,,---,0.06,VWS V14.01,2013-04-20 02:32:00,
2013-04-19 19:37:00,49.2,36.8,30.10,SSW,211,5.0,14.0,62,0.00,,---,0.06,VWS V14.01,2013-04-20 02:37:00,
2013-04-19 19:42:00,49.2,37.2,30.10,SW,218,7.0,14.0,63,0.00,,---,0.06,VWS V14.01,2013-04-20 02:42:00,
2013-04-19 19:45:00,49.1,36.7,30.10,SW,221,15.0,17.0,62,0.00,,---,0.06,VWS V14.01,2013-04-20 02:45:00,
2013-04-19 19:47:00,49.1,37.1,30.10,SW,218,14.0,15.0,63,0.00,,---,0.06,VWS V14.01,2013-04-20 02:47:00,
2013-04-19 19:52:00,48.9,37.3,30.10,SW,230,8.0,16.0,64,0.00,,---,0.06,VWS V14.01,2013-04-20 02:52:00,
2013-04-19 19:57:00,48.7,37.1,30.10,SW,225,10.0,16.0,64,0.00,,---,0.06,VWS V14.01,2013-04-20 02:57:00,
2013-04-19 20:00:00,48.5,37.3,30.10,SW,225,7.0,16.0,65,0.00,,---,0.06,VWS V14.01,2013-04-20 03:00:00,
2013-04-19 20:02:00,48.4,37.2,30.11,SW,226,7.0,8.0,65,0.00,,---,0.06,VWS V14.01,2013-04-20 03:02:00,
2013-04-19 20:07:00,48.1,37.3,30.11,SW,232,7.0,8.0,66,0.00,,---,0.06,VWS V14.01,2013-04-20 03:07:00,
2013-04-19 20:12:00,48.0,37.2,30.11,SW,229,4.0,8.0,66,0.00,,---,0.06,VWS V14.01,2013-04-20 03:12:00,
2013-04-19 20:15:00,47.9,37.5,30.11,WSW,240,3.0,8.0,67,0.00,,---,0.06,VWS V14.01,2013-04-20 03:15:00,
2013-04-19 20:17:00,47.8,37.4,30.11,SW,225,4.0,8.0,67,0.00,,---,0.06,VWS V14.01,2013-04-20 03:17:00,
2013-04-19 20:22:00,47.7,36.9,30.11,SW,228,7.0,10.0,66,0.00,,---,0.06,VWS V14.01,2013-04-20 03:22:00,
2013-04-19 20:27:00,47.9,36.7,30.11,SW,218,8.0,11.0,65,0.00,,---,0.06,VWS V14.01,2013-04-20 03:27:00,
2013-04-19 20:30:00,47.9,36.7,30.11,SW,232,8.0,14.0,65,0.00,,---,0.06,VWS V14.01,2013-04-20 03:30:00,
2013-04-19 20:32:00,47.9,36.3,30.11,SW,228,9.0,15.0,64,0.00,,---,0.06,VWS V14.01,2013-04-20 03:32:00,
2013-04-19 20:37:00,48.0,36.8,30.12,SW,230,10.0,15.0,65,0.00,,---,0.06,VWS V14.01,2013-04-20 03:37:00,
2013-04-19 20:42:00,47.8,37.0,30.12,SW,233,6.0,15.0,66,0.00,,---,0.06,VWS V14.01,2013-04-20 03:42:00,
2013-04-19 20:45:00,47.7,36.9,30.12,SW,235,5.0,15.0,66,0.00,,---,0.06,VWS V14.01,2013-04-20 03:45:00,
2013-04-19 20:47:00,47.6,36.8,30.12,SW,232,6.0,7.0,66,0.00,,---,0.06,VWS V14.01,2013-04-20 03:47:00,
2013-04-19 20:52:00,47.4,36.6,30.12,SW,229,9.0,10.0,66,0.00,,---,0.06,VWS V14.01,2013-04-20 03:52:00,
2013-04-19 20:57:00,47.3,36.5,30.13,SW,223,4.0,12.0,66,0.00,,---,0.06,VWS V14.01,2013-04-20 03:57:00,
2013-04-19 21:00:00,47.0,36.6,30.13,SW,222,6.0,12.0,67,0.00,,---,0.06,VWS V14.01,2013-04-20 04:00:00,
2013-04-19 21:01:00,46.9,36.5,30.13,SW,221,6.0,8.0,67,0.00,,---,0.06,VWS V14.01,2013-04-20 04:01:00,
2013-04-19 21:06:00,46.4,36.4,30.14,SW,215,5.0,8.0,68,0.00,,---,0.06,VWS V14.01,2013-04-20 04:06:00,
2013-04-19 21:11:00,46.1,36.5,30.14,SSW,194,0.0,8.0,69,0.00,,---,0.06,VWS V14.01,2013-04-20 04:11:00,
2013-04-19 21:15:00,45.9,36.7,30.14,SSW,201,0.0,8.0,70,0.00,,---,0.06,VWS V14.01,2013-04-20 04:15:00,
2013-04-19 21:16:00,45.8,36.6,30.14,SSW,201,0.0,0.0,70,0.00,,---,0.06,VWS V14.01,2013-04-20 04:16:00,
2013-04-19 21:21:00,45.3,36.8,30.14,South,187,2.0,3.0,72,0.00,,---,0.06,VWS V14.01,2013-04-20 04:21:00,
2013-04-19 21:26:00,45.0,37.2,30.14,SW,223,4.0,7.0,74,0.00,,---,0.06,VWS V14.01,2013-04-20 04:26:00,
2013-04-19 21:30:00,45.0,37.2,30.15,SSW,194,2.0,7.0,74,0.00,,---,0.06,VWS V14.01,2013-04-20 04:30:00,
2013-04-19 21:31:00,45.0,37.2,30.15,SSW,200,5.0,5.0,74,0.00,,---,0.06,VWS V14.01,2013-04-20 04:31:00,
2013-04-19 21:36:00,44.9,37.1,30.15,SSW,209,7.0,9.0,74,0.00,,---,0.06,VWS V14.01,2013-04-20 04:36:00,
2013-04-19 21:41:00,44.7,37.3,30.15,SW,222,9.0,9.0,75,0.00,,---,0.06,VWS V14.01,2013-04-20 04:41:00,
2013-04-19 21:45:00,44.5,37.8,30.15,SW,231,6.0,9.0,77,0.00,,---,0.06,VWS V14.01,2013-04-20 04:45:00,
2013-04-19 21:46:00,44.4,37.7,30.15,SW,226,6.0,9.0,77,0.00,,---,0.06,VWS V14.01,2013-04-20 04:46:00,
2013-04-19 21:51:00,44.3,38.2,30.15,WSW,240,7.0,9.0,79,0.00,,---,0.06,VWS V14.01,2013-04-20 04:51:00,
2013-04-19 21:56:00,44.0,38.2,30.15,WSW,254,7.0,9.0,80,0.00,,---,0.06,VWS V14.01,2013-04-20 04:56:00,
2013-04-19 22:00:00,43.7,38.3,30.15,SW,234,3.0,9.0,81,0.00,,---,0.06,VWS V14.01,2013-04-20 05:00:00,
2013-04-19 22:01:00,43.7,38.6,30.15,SW,227,4.0,4.0,82,0.00,,---,0.06,VWS V14.01,2013-04-20 05:01:00,
2013-04-19 22:06:00,43.3,38.5,30.15,SSW,207,3.0,5.0,83,0.00,,---,0.06,VWS V14.01,2013-04-20 05:06:00,
2013-04-19 22:11:00,43.2,38.7,30.15,SSW,210,3.0,5.0,84,0.00,,---,0.06,VWS V14.01,2013-04-20 05:11:00,
2013-04-19 22:15:00,43.2,39.0,30.15,SSW,211,0.0,5.0,85,0.00,,---,0.06,VWS V14.01,2013-04-20 05:15:00,
2013-04-19 22:16:00,43.1,38.9,30.16,SSW,211,2.0,4.0,85,0.00,,---,0.06,VWS V14.01,2013-04-20 05:16:00,
2013-04-19 22:21:00,43.0,38.5,30.15,SSW,211,0.0,4.0,84,0.00,,---,0.06,VWS V14.01,2013-04-20 05:21:00,
2013-04-19 22:26:00,42.8,38.3,30.15,SSW,211,0.0,4.0,84,0.00,,---,0.06,VWS V14.01,2013-04-20 05:26:00,
2013-04-19 22:30:00,42.6,38.1,30.15,SSW,211,0.0,4.0,84,0.00,,---,0.06,VWS V14.01,2013-04-20 05:30:00,
2013-04-19 22:31:00,42.6,38.1,30.15,SSW,211,0.0,0.0,84,0.00,,---,0.06,VWS V14.01,2013-04-20 05:31:00,
2013-04-19 22:36:00,42.3,37.2,30.15,SSW,210,0.0,0.0,82,0.00,,---,0.06,VWS V14.01,2013-04-20 05:36:00,
2013-04-19 22:41:00,41.7,36.9,30.15,SSW,210,0.0,0.0,83,0.00,,---,0.06,VWS V14.01,2013-04-20 05:41:00,
2013-04-19 22:45:00,41.5,37.0,30.15,SSW,211,0.0,0.0,84,0.00,,---,0.06,VWS V14.01,2013-04-20 05:45:00,
2013-04-19 22:46:00,41.4,36.9,30.15,SSW,210,0.0,0.0,84,0.00,,---,0.06,VWS V14.01,2013-04-20 05:46:00,
2013-04-19 22:51:00,40.9,37.0,30.16,SSW,211,0.0,0.0,86,0.00,,---,0.06,VWS V14.01,2013-04-20 05:51:00,
2013-04-19 22:56:00,40.4,36.5,30.16,NNW,342,0.0,3.0,86,0.00,,---,0.06,VWS V14.01,2013-04-20 05:56:00,
2013-04-19 23:00:00,40.0,36.2,30.16,NNW,342,0.0,0.0,86,0.00,,---,0.06,VWS V14.01,2013-04-20 06:00:00,
2013-04-19 23:05:00,40.0,36.5,30.16,NNW,341,0.0,0.0,87,0.00,,---,0.06,VWS V14.01,2013-04-20 06:05:00,
2013-04-19 23:10:00,40.2,36.3,30.16,NNW,329,0.0,0.0,86,0.00,,---,0.06,VWS V14.01,2013-04-20 06:10:00,
2013-04-19 23:15:00,40.2,36.1,30.16,WSW,252,0.0,0.0,85,0.00,,---,0.06,VWS V14.01,2013-04-20 06:15:00,
2013-04-19 23:20:00,40.6,36.2,30.16,SW,218,4.0,7.0,84,0.00,,---,0.06,VWS V14.01,2013-04-20 06:20:00,
2013-04-19 23:25:00,40.8,35.7,30.17,SW,220,1.0,7.0,82,0.00,,---,0.06,VWS V14.01,2013-04-20 06:25:00,
2013-04-19 23:30:00,40.3,34.9,30.17,NNW,329,0.0,0.0,81,0.00,,---,0.06,VWS V14.01,2013-04-20 06:30:00,
2013-04-19 23:35:00,39.2,34.8,30.17,North,5,0.0,0.0,84,0.00,,---,0.06,VWS V14.01,2013-04-20 06:35:00,
2013-04-19 23:40:00,39.3,34.9,30.17,North,11,0.0,0.0,84,0.00,,---,0.06,VWS V14.01,2013-04-20 06:40:00,
2013-04-19 23:45:00,39.8,35.4,30.17,NNE,12,0.0,0.0,84,0.00,,---,0.06,VWS V14.01,2013-04-20 06:45:00,
2013-04-19 23:50:00,40.2,35.8,30.17,NNE,12,0.0,0.0,84,0.00,,---,0.06,VWS V14.01,2013-04-20 06:50:00,
2013-04-19 23:55:00,40.8,36.0,30.17,NNE,12,0.0,0.0,83,0.00,,---,0.06,VWS V14.01,2013-04-20 06:55:00,